Home   Weather   Rheda-Wiedenbrück   Past weeks

Flag for Germany Past Weather in Rheda-Wiedenbrück, North Rhine-Westphalia, Germany — Yesterday and Last 2 Weeks

43 °F

Passing clouds.

Feels Like: 43 °F
Forecast: 35 / 52 °F
Wind: 1 mph from North

Location: Paderborn / Lippstadt

Current Time: Oct 22, 2016 at 8:02:06 PM

Latest Report: Oct 22, 2016 at 7:20 PM

Visibility: N/A

Pressure: 29.95 "Hg

Humidity: 93%

Dew Point: 41 °F

Location of Rheda-WiedenbrückLocation

Past Weather in Rheda-Wiedenbrück — Graph


Rheda-Wiedenbrück Temperature Yesterday

Maximum temperature yesterday: 45 °F (at 1:50 PM)
Minimum temperature yesterday: 41 °F (at 5:20 AM)
Average temperature yesterday: 43 °F

High & Low Weather Summary for the Past Weeks

High66 °F (Oct 16, 2:50 PM)100% (Oct 21, 5:20 AM)30.27 "Hg (Oct 21, 5:20 AM)
Low34 °F (Oct 11, 5:20 AM)49% (Oct 16, 2:50 PM)29.68 "Hg (Oct 15, 1:50 AM)
Average47 °F82%30.05 "Hg
* Reported Oct 7 6:20 PM — Oct 22 6:50 PM, Rheda-Wiedenbrück, Weather by CustomWeather, © 2016

Note: Actual official high and low records may vary slightly from our data, if they occured in-between our weather recording intervals... More about our weather records


Rheda-Wiedenbrück Weather History for the Previous 24 Hours

Scroll right to see more
Time TempWeatherWind HumidityBarometerVisibility
6:50 PM
Sat, Oct 22
43 °FPassing clouds.3 mph93%29.95 "HgN/A
6:20 PM43 °FPassing clouds.1 mph87%29.95 "HgN/A
5:50 PM45 °FPartly sunny.2 mph87%29.95 "HgN/A
5:20 PM45 °FBroken clouds.3 mph81%29.95 "HgN/A
4:50 PM46 °FBroken clouds.5 mph76%29.92 "HgN/A
4:20 PM46 °FPartly sunny.3 mph76%29.92 "HgN/A
3:50 PM46 °FPartly sunny.5 mph76%29.92 "HgN/A
3:20 PM46 °FBroken clouds.3 mph76%29.92 "HgN/A
2:50 PM45 °FBroken clouds.2 mph81%29.92 "HgN/A
2:20 PM45 °FBroken clouds.3 mph81%29.92 "HgN/A
1:50 PM45 °FBroken clouds.5 mph87%29.92 "HgN/A
1:20 PM45 °FBroken clouds.5 mph87%29.92 "HgN/A
12:50 PM45 °FPartly sunny.3 mph87%29.92 "Hg4 mi
12:20 PM43 °FFog.3 mph93%29.92 "Hg2 mi
11:50 AM43 °FFog.3 mph93%29.92 "Hg2 mi
11:20 AM43 °FFog.3 mph93%29.92 "Hg2 mi
10:50 AM43 °FFog.3 mph93%29.92 "Hg1 mi
10:20 AM43 °FFog.3 mph93%29.89 "Hg1 mi
9:50 AM43 °FFog.5 mph93%29.89 "Hg1 mi
9:20 AM43 °FRain. Fog.5 mph93%29.89 "Hg1 mi
8:50 AM43 °FRain. Fog.2 mph93%29.89 "Hg1 mi
8:20 AM43 °FFog.1 mph93%29.89 "Hg1 mi
7:50 AM43 °FFog.2 mph93%29.89 "Hg1 mi
7:20 AM43 °FFog.2 mph93%29.86 "Hg2 mi
6:50 AM43 °FFog.3 mph93%29.86 "Hg1 mi
6:20 AM43 °FFog.5 mph93%29.86 "Hg1 mi
5:50 AM43 °FFog.3 mph93%29.86 "Hg1 mi
5:20 AM43 °FFog.3 mph93%29.86 "Hg2 mi
4:50 AM43 °FDrizzle. Fog.5 mph93%29.86 "Hg1 mi
4:20 AM45 °FDrizzle. Fog.6 mph93%29.86 "Hg1 mi
3:50 AM45 °FDrizzle. Fog.5 mph93%29.86 "Hg1 mi
3:20 AM45 °FDrizzle. Fog.2 mph93%29.86 "Hg2 mi
2:50 AM45 °FDrizzle. Fog.3 mph93%29.86 "Hg2 mi
1:50 AM43 °FLight rain. Fog.6 mph93%29.89 "Hg2 mi
1:20 AM43 °FLight rain. Fog.6 mph93%29.89 "Hg2 mi
12:50 AM43 °FLight rain. Fog.2 mph93%29.89 "Hg2 mi
12:20 AM43 °FDrizzle. Fog.5 mph93%29.89 "Hg2 mi
11:50 PM
Fri, Oct 21
43 °FDrizzle. Fog.8 mph93%29.89 "Hg2 mi
11:20 PM43 °FDrizzle. Fog.10 mph93%29.89 "Hg2 mi
10:50 PM43 °FDrizzle. Fog.9 mph93%29.89 "Hg2 mi
10:20 PM43 °FLight rain. Fog.9 mph93%29.89 "Hg2 mi
9:50 PM43 °FLight rain. Fog.9 mph87%29.89 "Hg3 mi
9:20 PM43 °FLight rain. Fog.9 mph87%29.92 "Hg3 mi
8:50 PM43 °FLight rain. Fog.8 mph87%29.92 "Hg3 mi
8:20 PM43 °FLight rain. Fog.8 mph93%29.92 "Hg3 mi
Weather by CustomWeather, © 2016

See weather overviewHow to use our weather pages